FW9077 Weather Reports


time (UTC)temp
C
wind
direction
speed
KPH
gust
KPH
rain 1hr
cm
rain 24hr
cm
rain mn
cm
humidity
%
barometer
mb
20260507085604 7 127 1.6 1.6 0.00 0.03 0.03 95 1006.5
20260507085101 7 92 1.6 3.2 0.00 0.03 0.03 95 1006.6
20260507084558 7 79 3.2 3.2 0.00 0.03 0.03 95 1007.0
20260507084055 7 106 1.6 1.6 0.00 0.03 0.03 96 1006.7
20260507083551 7 97 1.6 1.6 0.00 0.03 0.03 96 1006.6
20260507083048 7 107 1.6 1.6 0.00 0.03 0.03 95 1006.4
20260507082544 7 108 0.0 0.0 0.00 0.03 0.03 94 1006.5
20260507082041 8 339 3.2 3.2 0.18 0.03 0.03 94 1006.5
20260507081537 8 105 0.0 0.0 0.18 0.03 0.03 93 1006.5
20260507081034 8 108 0.0 0.0 0.00 0.00 0.00 92 1006.4
20260507080529 8 96 1.6 1.6 0.00 0.00 0.00 91 1006.1
20260507080026 8 94 1.6 1.6 0.00 0.00 0.00 90 1006.4
20260507075522 8 99 1.6 1.6 0.00 0.00 0.00 88 1006.6
20260507075018 9 100 1.6 1.6 0.00 0.00 0.00 89 1006.6
20260507074515 9 109 3.2 3.2 0.00 0.00 0.00 89 1006.8
20260507074014 9 107 0.0 1.6 0.00 0.00 0.00 90 1006.6
20260507073509 9 100 4.8 4.8 0.00 0.00 0.00 91 1006.4
20260507073006 9 74 3.2 3.2 0.00 0.00 0.00 92 1006.4
20260507072504 9 97 1.6 1.6 0.00 0.00 0.00 92 1006.2
20260507072001 9 90 3.2 3.2 0.00 0.00 0.00 93 1006.2
20260507071458 9 93 3.2 3.2 0.00 0.00 0.00 92 1006.0
20260507070954 9 89 3.2 3.2 0.00 0.00 0.00 93 1006.0
20260507070451 9 94 1.6 1.6 0.00 0.00 0.00 93 1006.4
20260507065948 9 83 3.2 3.2 0.00 0.00 0.00 93 1006.3
20260507065445 9 83 3.2 3.2 0.00 0.00 0.00 93 1006.1
20260507064942 9 97 0.0 1.6 0.00 0.00 0.00 92 1006.0
20260507064440 9 100 1.6 1.6 0.00 0.00 0.00 92 1006.0
20260507063938 9 106 3.2 3.2 0.00 0.00 0.00 92 1005.8
20260507063434 9 103 1.6 1.6 0.00 0.00 0.00 92 1006.3
20260507062932 9 111 0.0 0.0 0.00 0.00 0.00 92 1005.7
20260507062429 9 104 0.0 0.0 0.00 0.00 0.00 92 1005.9
20260507061926 9 102 0.0 1.6 0.00 0.00 0.00 91 1005.9
20260507061424 9 67 1.6 3.2 0.00 0.00 0.00 92 1005.8
20260507060922 9 102 0.0 1.6 0.00 0.00 0.00 91 1005.9
20260507060419 9 107 0.0 1.6 0.00 0.00 0.00 90 1006.0
20260507055915 9 93 1.6 1.6 0.00 0.00 0.00 90 1006.1
20260507055411 9 100 1.6 1.6 0.00 0.00 0.00 91 1006.0
20260507054908 9 107 1.6 1.6 0.00 0.00 0.00 91 1006.2
20260507054404 9 107 1.6 3.2 0.00 0.00 0.00 92 1006.2
20260507053901 9 259 1.6 3.2 0.00 0.00 0.00 93 1006.4
20260507053359 9 108 1.6 1.6 0.00 0.00 0.00 93 1006.6
20260507052858 10 98 3.2 3.2 0.00 0.00 0.00 95 1006.4
20260507052354 10 118 0.0 1.6 0.00 0.00 0.00 95 1006.2
20260507051851 10 104 1.6 1.6 0.00 0.00 0.00 95 1006.4
20260507051349 10 109 3.2 3.2 0.00 0.00 0.00 96 1006.5
20260507050845 10 120 1.6 3.2 0.00 0.00 0.00 97 1006.3
20260507050342 10 93 1.6 3.2 0.00 0.00 0.00 97 1006.2
20260507045839 10 114 0.0 0.0 0.00 0.00 0.00 97 1006.2
20260507045335 10 104 0.0 1.6 0.00 0.00 0.00 98 1005.8
20260507044833 10 93 0.0 1.6 0.00 0.00 0.00 98 1005.9
20260507044329 10 100 1.6 1.6 0.00 0.00 0.00 98 1006.0
20260507043825 10 110 1.6 3.2 0.00 0.00 0.00 98 1006.1
20260507043322 10 107 0.0 0.0 0.00 0.00 0.00 98 1006.1
20260507042818 10 81 6.4 8.0 0.00 0.00 0.00 98 1006.1
20260507042314 10 159 1.6 3.2 0.00 0.00 0.00 98 1006.1
20260507041811 10 104 1.6 1.6 0.00 0.00 0.00 98 1006.6
20260507041308 10 65 3.2 4.8 0.00 0.00 0.00 98 1006.3
20260507040805 11 106 1.6 3.2 0.00 0.00 0.00 98 1006.4
20260507040301 11 89 1.6 1.6 0.00 0.00 0.00 98 1006.3
20260507035757 11 102 1.6 1.6 0.00 0.61 0.61 98 1006.2
20260507035252 11 181 3.2 3.2 0.00 0.61 0.61 98 1005.9
20260507034750 11 352 6.4 9.7 0.00 0.61 0.61 98 1005.8
20260507034247 12 80 4.8 4.8 0.00 0.61 0.61 98 1005.6
20260507033745 12 98 4.8 4.8 0.00 0.61 0.61 98 1005.5
20260507033242 12 73 4.8 4.8 0.13 0.61 0.61 98 1005.4
20260507032739 12 114 3.2 4.8 0.13 0.61 0.61 98 1005.3
20260507032235 13 107 3.2 4.8 0.00 0.58 0.58 98 1005.3
20260507031732 13 84 4.8 4.8 0.00 0.58 0.58 98 1005.1
20260507031229 13 63 4.8 4.8 0.00 0.58 0.58 98 1005.1
20260507030726 13 294 3.2 3.2 0.00 0.58 0.58 98 1005.5
20260507030223 14 112 4.8 4.8 0.00 0.58 0.58 98 1005.2
20260507025720 14 290 4.8 8.0 0.00 0.58 0.58 98 1005.1
20260507025217 14 346 3.2 3.2 0.00 0.58 0.58 98 1004.8
20260507024716 14 7 4.8 4.8 0.00 0.58 0.58 98 1004.9
20260507024212 14 127 1.6 1.6 0.00 0.58 0.58 98 1005.1
20260507023708 14 124 4.8 4.8 0.00 0.58 0.58 98 1004.9
20260507023205 14 148 3.2 4.8 0.00 0.58 0.58 98 1005.0
20260507022702 14 271 4.8 4.8 0.00 0.58 0.58 98 1005.1
20260507022158 14 110 0.0 1.6 0.00 0.58 0.58 98 1004.7
20260507021654 14 143 1.6 3.2 0.00 0.58 0.58 98 1004.5
20260507021149 14 113 1.6 3.2 0.00 0.58 0.58 98 1004.8
20260507020649 14 166 3.2 3.2 0.00 0.58 0.58 98 1004.7
20260507020144 14 195 4.8 4.8 0.00 0.58 0.58 98 1004.7
20260507015643 14 204 1.6 1.6 0.00 0.58 0.58 98 1004.9
20260507015140 14 190 4.8 4.8 0.00 0.58 0.58 98 1004.8
20260507014636 14 173 1.6 4.8 0.00 0.58 0.58 98 1004.8
20260507014132 14 159 3.2 3.2 0.00 0.58 0.58 98 1004.8
20260507013629 14 145 3.2 3.2 0.00 0.58 0.58 98 1004.8
20260507013126 14 175 3.2 4.8 0.00 0.58 0.58 98 1004.7
20260507012624 14 192 3.2 3.2 0.00 0.58 0.58 98 1004.9
20260507012119 14 192 0.0 1.6 0.00 0.58 0.58 98 1005.0
20260507011617 14 192 3.2 4.8 0.00 0.58 0.58 98 1004.8
20260507011113 14 175 6.4 11.3 0.00 0.58 0.58 98 1005.1
20260507010608 14 207 4.8 8.0 0.00 0.58 0.58 98 1005.0
20260507010104 14 241 6.4 9.7 0.00 0.58 0.58 98 1005.0
20260507005602 14 153 3.2 4.8 0.00 0.58 0.58 98 1004.9
20260507005058 14 233 4.8 11.3 0.00 0.58 0.58 98 1005.1
20260507004555 14 164 4.8 8.0 0.00 0.58 0.58 98 1004.7
20260507004052 14 154 8.0 11.3 0.00 0.58 0.58 98 1004.8
20260507003548 14 127 3.2 4.8 0.00 0.58 0.58 98 1004.6
20260507003043 14 171 8.0 11.3 0.00 0.58 0.58 98 1004.7
20260507002540 14 202 8.0 11.3 0.00 0.58 0.58 98 1005.1
20260507002036 14 150 4.8 4.8 0.00 0.58 0.58 98 1005.0
20260507001533 14 175 3.2 4.8 0.18 0.58 0.58 98 1004.8
20260507001031 14 144 3.2 3.2 0.18 0.58 0.58 98 1004.7
20260507000526 14 114 4.8 8.0 0.00 0.56 0.56 98 1004.7
20260507000023 14 132 1.6 3.2 0.00 0.56 0.56 98 1004.6
20260506235520 14 132 1.6 1.6 0.00 0.56 0.56 98 1004.5
20260506235015 14 190 8.0 11.3 0.00 0.56 0.56 98 1004.7
20260506234513 14 221 3.2 4.8 0.00 0.56 0.56 98 1004.6
20260506234010 14 110 4.8 8.0 0.00 0.56 0.56 98 1004.6
20260506233506 14 161 6.4 8.0 0.00 0.56 0.56 98 1004.4
20260506233004 14 249 4.8 8.0 0.00 0.56 0.56 98 1004.8
20260506232459 14 150 1.6 1.6 0.30 0.56 0.56 98 1004.7
20260506231955 14 130 4.8 8.0 0.43 0.56 0.56 98 1004.5
20260506231453 14 258 4.8 8.0 0.13 0.51 0.51 98 1004.7
20260506230950 14 236 8.0 9.7 0.18 0.48 0.48 98 1004.7
20260506230446 14 177 3.2 3.2 0.30 0.48 0.48 98 1004.7
20260506225943 14 146 3.2 4.8 0.30 0.46 0.46 98 1004.9
20260506225441 14 285 6.4 11.3 0.30 0.43 0.43 98 1004.8
20260506224937 14 238 3.2 8.0 0.13 0.41 0.41 98 1005.0
20260506224434 14 163 1.6 3.2 0.00 0.38 0.38 98 1004.8
20260506223931 14 153 1.6 1.6 0.00 0.38 0.38 98 1004.9
20260506223426 14 195 8.0 9.7 0.00 0.38 0.38 98 1004.9
20260506222924 14 123 3.2 3.2 0.18 0.38 0.38 98 1004.8
20260506222420 14 132 4.8 4.8 0.18 0.38 0.38 98 1005.0
20260506221917 14 190 8.0 11.3 0.00 0.36 0.36 98 1005.0
20260506221414 14 180 8.0 9.7 0.00 0.36 0.36 98 1004.9
20260506220912 14 221 4.8 4.8 0.13 0.36 0.36 98 1005.0
20260506220407 14 124 1.6 3.2 0.30 0.36 0.36 98 1005.1
20260506215904 14 196 8.0 9.7 0.36 0.33 0.33 98 1005.3
20260506215400 14 155 4.8 8.0 0.18 0.30 0.30 98 1005.2
20260506214856 14 149 3.2 3.2 0.00 0.28 0.28 98 1005.1
20260506214353 14 178 6.4 9.7 0.00 0.28 0.28 98 1005.2
20260506213851 14 146 9.7 12.9 0.00 0.28 0.28 98 1005.2
20260506213348 14 234 9.7 14.5 0.00 0.28 0.28 98 1005.2
20260506212845 15 199 1.6 3.2 0.00 0.28 0.28 98 1005.2
20260506212341 15 173 3.2 3.2 0.13 0.28 0.28 98 1005.5
20260506211836 15 161 3.2 4.8 0.13 0.28 0.28 98 1005.5
20260506211332 15 147 4.8 8.0 0.18 0.25 0.25 98 1005.7
20260506210830 15 161 4.8 4.8 0.18 0.25 0.25 98 1005.6
20260506210327 15 173 4.8 9.7 0.00 0.23 0.23 98 1005.6
20260506205824 15 41 6.4 11.3 0.00 0.23 0.23 98 1005.7
20260506205320 15 167 9.7 14.5 0.13 0.23 0.23 98 1005.6
20260506204817 15 157 1.6 1.6 0.13 0.23 0.23 98 1005.7
20260506204314 15 226 9.7 17.7 0.18 0.20 0.20 97 1005.8
20260506203812 15 228 3.2 3.2 0.18 0.20 0.20 97 1005.7
20260506203309 15 61 4.8 4.8 0.00 0.18 0.18 97 1005.9
20260506202806 15 170 8.0 12.9 0.13 0.18 0.18 96 1005.6
20260506202306 15 250 6.4 8.0 0.30 0.18 0.18 96 1005.7
20260506201759 16 117 1.6 3.2 0.18 0.15 0.15 95 1005.6
20260506201256 16 171 4.8 4.8 0.18 0.15 0.15 95 1005.7
20260506200753 16 153 1.6 1.6 0.00 0.13 0.13 94 1005.7
20260506200249 16 140 6.4 9.7 0.00 0.13 0.13 93 1005.8
20260506195746 16 93 3.2 3.2 0.00 0.13 0.13 93 1005.8
20260506195242 16 129 1.6 3.2 0.00 0.13 0.13 93 1005.7
20260506194740 16 210 3.2 8.0 0.00 0.13 0.13 93 1005.9
20260506194236 16 142 1.6 1.6 0.00 0.13 0.13 93 1005.9
20260506193734 16 197 4.8 4.8 0.00 0.13 0.13 92 1005.8
20260506193230 16 151 6.4 9.7 0.13 0.13 0.13 93 1005.9
20260506192727 16 184 4.8 4.8 0.13 0.13 0.13 92 1005.6
20260506192224 16 152 1.6 3.2 0.18 0.10 0.10 91 1005.6
20260506191720 17 121 3.2 4.8 0.18 0.10 0.10 90 1005.7
20260506191216 17 167 4.8 9.7 0.13 0.08 0.08 91 1005.8
20260506190714 17 118 1.6 1.6 0.13 0.08 0.08 91 1005.8
20260506190210 17 135 1.6 1.6 0.18 0.05 0.05 90 1006.4
20260506185708 17 114 0.0 1.6 0.18 0.05 0.05 88 1006.1
20260506185204 17 120 1.6 1.6 0.00 0.03 0.03 86 1006.0
20260506184702 18 128 1.6 1.6 0.18 0.03 0.03 83 1006.1
20260506184159 18 116 3.2 3.2 0.18 0.03 0.03 79 1006.1
20260506183655 18 131 1.6 3.2 0.00 0.00 0.00 79 1006.0
20260506183151 18 129 1.6 3.2 0.00 0.00 0.00 76 1006.2
20260506182649 19 133 0.0 1.6 0.00 0.00 0.00 74 1006.2
20260506182146 20 196 1.6 3.2 0.00 0.00 0.00 72 1006.3
20260506181644 20 136 1.6 1.6 0.00 0.00 0.00 70 1006.0
20260506181141 20 135 4.8 8.0 0.00 0.00 0.00 69 1006.1
20260506180637 20 176 11.3 20.9 0.00 0.00 0.00 66 1006.1
20260506180134 20 234 6.4 8.0 0.00 0.00 0.00 65 1005.9
20260506175630 21 328 8.0 11.3 0.00 0.00 0.00 64 1006.2
20260506175126 21 239 4.8 4.8 0.00 0.00 0.00 62 1005.9
20260506174626 21 184 8.0 9.7 0.00 0.00 0.00 60 1006.1
20260506174122 21 131 3.2 3.2 0.00 0.00 0.00 61 1006.0
20260506173619 21 111 9.7 12.9 0.00 0.00 0.00 60 1006.1
20260506173116 21 315 6.4 9.7 0.00 0.00 0.00 61 1006.1
20260506172613 22 281 8.0 12.9 0.00 0.00 0.00 61 1006.0
20260506172109 22 21 6.4 9.7 0.00 0.00 0.00 60 1006.3
20260506171607 21 125 3.2 3.2 0.00 0.00 0.00 61 1006.3
20260506171105 21 213 11.3 17.7 0.00 0.00 0.00 61 1006.2
20260506170602 21 115 3.2 8.0 0.00 0.00 0.00 61 1006.2
20260506170059 21 191 9.7 12.9 0.00 0.00 0.00 61 1006.5
20260506165558 21 73 8.0 11.3 0.00 0.00 0.00 62 1006.5
20260506165053 21 189 6.4 8.0 0.00 0.00 0.00 62 1006.5
20260506164551 21 230 12.9 17.7 0.00 0.00 0.00 61 1006.9
20260506164048 21 135 3.2 4.8 0.00 0.00 0.00 62 1006.6
20260506163543 21 157 3.2 3.2 0.00 0.00 0.00 63 1006.8
20260506163039 21 183 3.2 3.2 0.00 0.00 0.00 63 1006.7
20260506162536 21 240 6.4 11.3 0.00 0.00 0.00 64 1006.7
20260506162033 21 235 12.9 20.9 0.00 0.00 0.00 63 1006.9
20260506161531 21 122 3.2 4.8 0.00 0.00 0.00 64 1007.1
20260506161027 21 131 1.6 3.2 0.00 0.00 0.00 65 1007.1
20260506160525 21 100 1.6 1.6 0.00 0.00 0.00 65 1007.2
20260506160022 20 152 1.6 3.2 0.00 0.00 0.00 66 1007.5
20260506155520 20 154 6.4 11.3 0.00 0.00 0.00 65 1007.5
20260506153652 20 253 4.8 8.0 0.00 0.00 0.00 66 1008.1
20260506153149 20 186 3.2 3.2 0.00 0.00 0.00 66 1008.0
20260506152646 21 175 4.8 8.0 0.00 0.00 0.00 65 1008.1
20260506152143 21 168 1.6 3.2 0.00 0.00 0.00 65 1008.0
20260506151642 21 218 8.0 11.3 0.00 0.00 0.00 65 1008.2
20260506151138 20 103 4.8 8.0 0.00 0.00 0.00 65 1008.0
20260506150635 20 171 8.0 17.7 0.00 0.00 0.00 66 1008.1
20260506150132 20 208 4.8 9.7 0.00 0.00 0.00 67 1008.2
20260506145629 20 143 8.0 9.7 0.00 0.00 0.00 67 1008.1
20260506145126 20 182 16.1 22.5 0.00 0.00 0.00 67 1008.4
20260506144624 20 222 4.8 11.3 0.00 0.00 0.00 68 1008.0
20260506144120 20 108 3.2 3.2 0.00 0.00 0.00 68 1007.9
20260506143618 20 200 9.7 14.5 0.00 0.00 0.00 69 1008.2
20260506143115 20 139 3.2 3.2 0.00 0.00 0.00 70 1008.3
20260506142614 20 225 4.8 4.8 0.00 0.00 0.00 69 1008.2
20260506142112 20 229 3.2 3.2 0.00 0.00 0.00 69 1007.9
20260506141609 20 143 4.8 4.8 0.00 0.00 0.00 70 1007.9
20260506141107 20 154 12.9 16.1 0.00 0.00 0.00 70 1007.7
20260506140604 19 163 4.8 4.8 0.00 0.00 0.00 73 1007.8
20260506135558 18 159 8.0 14.5 0.00 0.00 0.00 74 1008.1
20260506135054 18 166 14.5 24.1 0.00 0.00 0.00 74 1007.9
20260506134551 18 174 4.8 8.0 0.00 0.00 0.00 75 1008.4
20260506134047 18 166 1.6 3.2 0.00 0.00 0.00 76 1008.2
20260506133544 18 159 4.8 4.8 0.00 0.00 0.00 76 1008.3
20260506133041 18 232 6.4 8.0 0.00 0.00 0.00 76 1008.4
20260506132538 17 222 3.2 3.2 0.00 0.00 0.00 76 1008.4
20260506132036 17 159 8.0 11.3 0.00 0.00 0.00 77 1008.6
20260506131532 17 226 1.6 3.2 0.00 0.00 0.00 77 1008.7
20260506131029 17 223 9.7 16.1 0.00 0.00 0.00 77 1008.4
20260506130526 17 87 3.2 4.8 0.00 0.00 0.00 77 1008.4
20260506130023 17 184 6.4 8.0 0.00 0.00 0.00 77 1008.6
20260506125521 17 157 3.2 3.2 0.00 0.00 0.00 77 1009.0
20260506125019 17 240 4.8 9.7 0.00 0.00 0.00 77 1008.7
20260506124517 17 206 4.8 8.0 0.00 0.00 0.00 77 1008.6
20260506124014 17 190 3.2 3.2 0.00 0.00 0.00 78 1008.1
20260506123512 17 151 9.7 11.3 0.00 0.00 0.00 78 1008.6
20260506123010 17 225 11.3 14.5 0.00 0.00 0.00 78 1008.7
20260506122506 17 114 4.8 4.8 0.00 0.00 0.00 78 1008.3
20260506122005 17 116 3.2 3.2 0.00 0.00 0.00 79 1008.8
20260506121501 17 175 11.3 14.5 0.00 0.00 0.00 77 1008.8
20260506120958 17 182 4.8 8.0 0.00 0.00 0.00 77 1008.7
20260506120456 17 147 3.2 4.8 0.00 0.00 0.00 78 1008.8
20260506115953 16 147 4.8 4.8 0.00 0.00 0.00 80 1008.8
20260506115451 16 129 1.6 1.6 0.00 0.00 0.00 80 1008.7
20260506114949 16 136 8.0 9.7 0.00 0.00 0.00 80 1009.1
20260506114446 16 121 4.8 8.0 0.00 0.00 0.00 80 1009.0
20260506113944 16 229 3.2 8.0 0.00 0.00 0.00 80 1009.1
20260506113442 16 183 4.8 4.8 0.00 0.00 0.00 81 1009.0
20260506112938 16 146 3.2 3.2 0.00 0.00 0.00 81 1009.1
20260506112436 16 154 1.6 1.6 0.00 0.00 0.00 81 1009.2
20260506111933 16 178 4.8 4.8 0.00 0.00 0.00 81 1009.2
20260506111431 16 194 4.8 8.0 0.00 0.00 0.00 81 1009.0
20260506110928 16 124 3.2 3.2 0.00 0.00 0.00 81 1009.1
20260506110426 15 123 1.6 1.6 0.00 0.00 0.00 82 1009.1
20260506105922 15 156 3.2 3.2 0.00 0.00 0.00 82 1008.8
20260506105418 15 140 3.2 3.2 0.00 0.00 0.00 83 1009.2
20260506104916 15 149 3.2 4.8 0.00 0.00 0.00 83 1009.3
20260506104414 15 191 4.8 4.8 0.00 0.00 0.00 83 1009.3
20260506103912 15 200 4.8 8.0 0.00 0.00 0.00 83 1009.0
20260506103409 15 160 4.8 4.8 0.00 0.00 0.00 83 1009.0
20260506102905 15 205 6.4 8.0 0.00 0.00 0.00 83 1008.9
20260506102404 15 113 3.2 8.0 0.00 0.00 0.00 83 1009.0
20260506101901 15 133 6.4 9.7 0.00 0.00 0.00 83 1008.9
20260506101356 15 201 6.4 9.7 0.00 0.00 0.00 83 1009.1
20260506100854 15 229 3.2 8.0 0.00 0.00 0.00 83 1009.1
20260506100353 15 138 6.4 9.7 0.00 0.00 0.00 83 1009.3
20260506095850 15 203 3.2 4.8 0.00 0.00 0.00 83 1009.0
20260506095348 15 173 3.2 3.2 0.00 0.00 0.00 83 1009.2
20260506094844 15 155 0.0 0.0 0.00 0.00 0.00 83 1008.9
20260506094343 15 175 4.8 8.0 0.00 0.00 0.00 83 1008.8
20260506093841 15 119 3.2 4.8 0.00 0.00 0.00 83 1008.8
20260506093338 15 181 6.4 9.7 0.00 0.00 0.00 82 1009.0
20260506092835 15 136 1.6 1.6 0.00 0.00 0.00 82 1008.9
20260506092333 15 112 1.6 1.6 0.00 0.00 0.00 82 1009.3
20260506091830 15 259 4.8 9.7 0.00 0.00 0.00 81 1009.1
20260506091328 15 135 3.2 3.2 0.00 0.00 0.00 81 1008.8
20260506090825 15 165 3.2 4.8 0.00 0.00 0.00 81 1008.9
20260506090322 15 151 4.8 4.8 0.00 0.00 0.00 80 1009.1